CW9425 Weather Reports


time (UTC)temp
C
wind
direction
speed
KPH
gust
KPH
rain 1hr
cm
rain 24hr
cm
rain mn
cm
humidity
%
barometer
mb
20260504000052 23 101 1.6 0.0 0.00 0.00 0.00 25 1015.7
20260503235517 23 105 1.6 0.0 0.00 0.00 0.00 24 1015.8
20260503235002 23 104 3.2 0.0 0.00 0.00 0.00 25 1015.8
20260503234556 23 103 3.2 0.0 0.00 0.00 0.00 24 1015.8
20260503234036 23 215 1.6 0.0 0.00 0.00 0.00 24 1016.0
20260503233520 23 155 0.0 0.0 0.00 0.00 0.00 23 1016.0
20260503233006 23 119 0.0 0.0 0.00 0.00 0.00 23 1016.1
20260503232544 23 119 0.0 0.0 0.00 0.00 0.00 22 1016.3
20260503232025 23 218 0.0 0.0 0.00 0.00 0.00 23 1016.4
20260503231503 23 221 0.0 0.0 0.00 0.00 0.00 22 1016.6
20260503231047 23 221 0.0 0.0 0.00 0.00 0.00 23 1016.6
20260503230528 23 220 0.0 0.0 0.00 0.00 0.00 22 1016.7
20260503230007 23 219 0.0 0.0 0.00 0.00 0.00 23 1016.9
20260503225548 23 219 0.0 0.0 0.00 0.00 0.00 23 1016.9
20260503225030 23 219 1.6 0.0 0.00 0.00 0.00 23 1016.9
20260503224514 23 219 0.0 0.0 0.00 0.00 0.00 24 1017.1
20260503223553 23 236 3.2 0.0 0.00 0.00 0.00 24 1017.3
20260503223055 23 215 1.6 0.0 0.00 0.00 0.00 24 1017.4
20260503222557 23 187 0.0 0.0 0.00 0.00 0.00 24 1017.5
20260503222500 23 159 0.0 0.0 0.00 0.00 0.00 24 1017.6
20260503222058 22 42 1.6 0.0 0.00 0.00 0.00 24 1017.8
20260503222006 22 36 1.6 0.0 0.00 0.00 0.00 24 1017.7
20260503221511 23 103 1.6 0.0 0.00 0.00 0.00 24 1017.9
20260503221017 22 163 1.6 0.0 0.00 0.00 0.00 25 1018.0
20260503220522 22 220 0.0 0.0 0.00 0.00 0.00 25 1018.1
20260503220021 22 259 1.6 0.0 0.00 0.00 0.00 26 1018.2
20260503215522 22 259 4.8 0.0 0.00 0.00 0.00 26 1018.2
20260503215029 22 261 6.4 0.0 0.00 0.00 0.00 25 1018.4
20260503214536 22 216 4.8 0.0 0.00 0.00 0.00 25 1018.5
20260503214045 22 216 1.6 0.0 0.00 0.00 0.00 25 1018.6
20260503213541 22 183 1.6 0.0 0.00 0.00 0.00 24 1018.6
20260503213044 21 183 6.4 0.0 0.00 0.00 0.00 24 1018.7
20260503212546 21 217 6.4 0.0 0.00 0.00 0.00 25 1018.7
20260503212049 21 149 4.8 0.0 0.00 0.00 0.00 25 1018.8
20260503211602 21 209 3.2 0.0 0.00 0.00 0.00 25 1018.9
20260503211055 22 232 4.8 0.0 0.00 0.00 0.00 26 1019.0
20260503210558 22 205 4.8 0.0 0.00 0.00 0.00 23 1019.1
20260503210502 22 190 4.8 0.0 0.00 0.00 0.00 23 1019.2
20260503210007 22 178 4.8 0.0 0.00 0.00 0.00 24 1019.3
20260503205513 22 192 1.6 0.0 0.00 0.00 0.00 25 1019.3
20260503205013 22 155 1.6 0.0 0.00 0.00 0.00 26 1019.5
20260503204517 22 168 1.6 0.0 0.00 0.00 0.00 26 1019.6
20260503204022 21 176 1.6 0.0 0.00 0.00 0.00 27 1019.8
20260503203524 21 176 3.2 0.0 0.00 0.00 0.00 26 1020.0
20260503203040 21 165 4.8 0.0 0.00 0.00 0.00 27 1020.0
20260503202536 21 200 3.2 0.0 0.00 0.00 0.00 27 1020.1
20260503202037 21 176 3.2 0.0 0.00 0.00 0.00 29 1020.1
20260503201543 21 124 3.2 0.0 0.00 0.00 0.00 31 1020.3
20260503201044 21 109 3.2 0.0 0.00 0.00 0.00 31 1020.6
20260503200546 21 100 3.2 0.0 0.00 0.00 0.00 31 1020.6
20260503200046 20 77 4.8 0.0 0.00 0.00 0.00 32 1020.7
20260503195552 20 198 3.2 0.0 0.00 0.00 0.00 33 1020.8
20260503195052 20 225 3.2 0.0 0.00 0.00 0.00 34 1020.8
20260503194559 20 178 3.2 0.0 0.00 0.00 0.00 35 1021.0
20260503194100 19 172 3.2 0.0 0.00 0.00 0.00 36 1021.1
20260503194009 19 164 3.2 0.0 0.00 0.00 0.00 36 1021.1
20260503193513 19 194 4.8 0.0 0.00 0.00 0.00 36 1021.2
20260503193012 18 178 6.4 0.0 0.00 0.00 0.00 36 1021.2
20260503192518 18 213 4.8 0.0 0.00 0.00 0.00 36 1021.5
20260503192016 18 212 3.2 0.0 0.00 0.00 0.00 36 1021.6
20260503191525 18 168 3.2 0.0 0.00 0.00 0.00 36 1021.8
20260503191029 18 140 3.2 0.0 0.00 0.00 0.00 36 1021.7
20260503190536 18 117 3.2 0.0 0.00 0.00 0.00 37 1021.8
20260503190043 18 130 3.2 0.0 0.00 0.00 0.00 38 1021.9
20260503185540 17 159 1.6 0.0 0.00 0.00 0.00 38 1021.9
20260503185042 17 126 3.2 0.0 0.00 0.00 0.00 40 1022.0
20260503184546 17 191 3.2 0.0 0.00 0.00 0.00 40 1022.2
20260503184057 17 171 4.8 0.0 0.00 0.00 0.00 40 1022.3
20260503183602 17 128 4.8 0.0 0.00 0.00 0.00 40 1022.2
20260503183503 17 128 4.8 0.0 0.00 0.00 0.00 40 1022.4
20260503183009 17 92 4.8 0.0 0.00 0.00 0.00 41 1022.5
20260503182516 17 182 3.2 0.0 0.00 0.00 0.00 41 1022.4
20260503182019 17 198 4.8 0.0 0.00 0.00 0.00 42 1022.6
20260503181527 17 197 4.8 0.0 0.00 0.00 0.00 41 1022.6
20260503181026 17 200 1.6 0.0 0.00 0.00 0.00 42 1022.8
20260503180530 17 192 1.6 0.0 0.00 0.00 0.00 43 1023.0
20260503180037 17 164 3.2 0.0 0.00 0.00 0.00 42 1023.2
20260503175537 17 204 4.8 0.0 0.00 0.00 0.00 42 1023.3
20260503175046 17 182 4.8 0.0 0.00 0.00 0.00 41 1023.3
20260503174553 17 187 4.8 0.0 0.00 0.00 0.00 42 1023.4
20260503174054 17 137 3.2 0.0 0.00 0.00 0.00 42 1023.4
20260503174004 17 111 3.2 0.0 0.00 0.00 0.00 41 1023.4
20260503173504 17 116 3.2 0.0 0.00 0.00 0.00 42 1023.4
20260503173016 17 185 1.6 0.0 0.00 0.00 0.00 44 1023.6
20260503172507 17 185 1.6 0.0 0.00 0.00 0.00 44 1023.6
20260503172015 16 180 0.0 0.0 0.00 0.00 0.00 44 1023.8
20260503171525 16 165 0.0 0.0 0.00 0.00 0.00 45 1023.8
20260503171021 16 177 0.0 0.0 0.00 0.00 0.00 45 1023.8
20260503170522 16 146 1.6 0.0 0.00 0.00 0.00 46 1023.9
20260503150556 12 232 0.0 0.0 0.00 0.00 0.00 56 1024.8
20260503131023 6 106 0.0 0.0 0.00 0.00 0.00 76 1024.6
20260503130526 6 106 0.0 0.0 0.00 0.00 0.00 76 1024.6
20260503110512 6 106 0.0 0.0 0.00 0.00 0.00 73 1025.0
20260503081550 8 106 0.0 0.0 0.00 0.00 0.00 67 1025.2
20260503081100 8 106 0.0 0.0 0.00 0.00 0.00 66 1025.2
20260503081001 8 106 0.0 0.0 0.00 0.00 0.00 66 1025.2
20260503080506 8 106 0.0 0.0 0.00 0.00 0.00 65 1025.1
20260503072530 9 106 0.0 0.0 0.00 0.00 0.00 61 1025.4
20260503072035 10 106 0.0 0.0 0.00 0.00 0.00 61 1025.3
20260503071544 10 106 0.0 0.0 0.00 0.00 0.00 60 1025.4
20260503071040 10 106 0.0 0.0 0.00 0.00 0.00 60 1025.5
20260503070544 10 106 0.0 0.0 0.00 0.00 0.00 59 1025.4
20260503055043 11 107 1.6 0.0 0.00 0.00 0.05 56 1025.5
20260503054541 11 111 1.6 0.0 0.00 0.00 0.05 56 1025.4
20260503054047 11 112 0.0 0.0 0.00 0.00 0.05 56 1025.3
20260503053557 11 107 1.6 0.0 0.00 0.00 0.05 56 1025.4
20260503053502 11 108 1.6 0.0 0.00 0.00 0.05 56 1025.4
20260503053058 11 108 1.6 0.0 0.00 0.00 0.05 55 1025.4
20260503053004 11 108 0.0 0.0 0.00 0.00 0.05 55 1025.4
20260503052506 11 108 0.0 0.0 0.00 0.00 0.05 55 1025.3
20260503052014 11 107 1.6 0.0 0.00 0.00 0.05 55 1025.4
20260503051513 11 108 1.6 0.0 0.00 0.00 0.05 55 1025.4
20260503051017 11 108 1.6 0.0 0.00 0.00 0.05 55 1025.4
20260503050523 11 109 1.6 0.0 0.00 0.00 0.05 55 1025.3
20260503050029 11 109 1.6 0.0 0.00 0.00 0.05 55 1025.4
20260503045539 11 109 1.6 0.0 0.00 0.00 0.05 55 1025.3
20260503045036 11 109 1.6 0.0 0.00 0.00 0.05 55 1025.3
20260503044539 11 109 0.0 0.0 0.00 0.00 0.05 55 1025.3
20260503044047 11 109 0.0 0.0 0.00 0.00 0.05 55 1025.2
20260503043553 11 109 0.0 0.0 0.00 0.00 0.05 55 1025.3
20260503043103 11 109 1.6 0.0 0.00 0.00 0.05 54 1025.2
20260503043003 11 109 1.6 0.0 0.00 0.00 0.05 54 1025.2
20260503042509 11 109 3.2 0.0 0.00 0.00 0.05 54 1025.2
20260503042015 11 110 1.6 0.0 0.00 0.00 0.05 54 1025.2
20260503041522 11 110 1.6 0.0 0.00 0.00 0.05 54 1025.2
20260503041027 12 111 3.2 0.0 0.00 0.00 0.05 54 1025.0
20260503040535 12 111 3.2 0.0 0.00 0.00 0.05 54 1025.1
20260503040039 12 110 3.2 0.0 0.00 0.00 0.05 53 1025.1
20260503035540 12 87 3.2 0.0 0.00 0.00 0.05 53 1025.1
20260503034601 12 118 4.8 0.0 0.00 0.00 0.05 53 1025.0
20260503034048 12 101 4.8 0.0 0.00 0.00 0.05 53 1025.0
20260503033533 12 95 4.8 0.0 0.00 0.00 0.05 52 1024.9
20260503033018 12 107 4.8 0.0 0.00 0.00 0.05 51 1024.9
20260503032505 12 109 3.2 0.0 0.00 0.00 0.05 50 1024.8
20260503032057 12 91 1.6 0.0 0.00 0.00 0.05 50 1024.8
20260503031542 12 105 1.6 0.0 0.00 0.00 0.05 49 1024.6
20260503031029 12 106 1.6 0.0 0.00 0.00 0.05 49 1024.5
20260503030514 12 128 1.6 0.0 0.00 0.00 0.05 49 1024.4
20260503030004 12 133 3.2 0.0 0.00 0.00 0.05 49 1024.3
20260503025555 12 165 1.6 0.0 0.00 0.00 0.05 48 1024.2
20260503025040 12 123 0.0 0.0 0.00 0.00 0.05 48 1024.1
20260503024530 12 124 0.0 0.0 0.00 0.00 0.05 49 1023.9
20260503024015 12 112 0.0 0.0 0.00 0.00 0.05 49 1023.9
20260503023503 12 97 0.0 0.0 0.00 0.00 0.05 50 1023.8
20260503023100 12 97 0.0 0.0 0.00 0.00 0.05 51 1023.7
20260503022538 13 96 0.0 0.0 0.00 0.00 0.05 51 1023.6
20260503022027 13 96 0.0 0.0 0.00 0.00 0.05 52 1023.5
20260503021512 13 32 0.0 0.0 0.00 0.00 0.05 54 1023.4
20260503021059 13 32 0.0 0.0 0.00 0.00 0.05 55 1023.3
20260503020547 13 32 0.0 0.0 0.00 0.00 0.05 54 1023.3
20260503020034 13 32 0.0 0.0 0.00 0.00 0.05 54 1023.1
20260503015522 13 32 0.0 0.0 0.00 0.00 0.05 55 1023.1
20260503015010 13 32 0.0 0.0 0.00 0.00 0.05 55 1023.3
20260503014600 13 32 0.0 0.0 0.00 0.00 0.05 57 1023.2
20260503014049 13 32 0.0 0.0 0.00 0.00 0.05 57 1023.3
20260503013535 13 32 0.0 0.0 0.00 0.00 0.05 59 1023.3
20260503013022 13 32 0.0 0.0 0.00 0.00 0.05 59 1023.3
20260503012511 13 32 0.0 0.0 0.00 0.00 0.05 59 1023.1
20260503012058 13 32 0.0 0.0 0.00 0.00 0.05 60 1023.1
20260503011601 13 32 0.0 0.0 0.00 0.00 0.05 60 1023.1
20260503011038 13 32 0.0 0.0 0.00 0.00 0.05 57 1023.2
20260503010523 13 32 0.0 0.0 0.00 0.00 0.05 59 1023.3
20260503010016 13 32 0.0 0.0 0.00 0.00 0.05 58 1023.2
20260503005502 13 32 0.0 0.0 0.00 0.00 0.05 60 1023.3
20260503005053 14 33 0.0 0.0 0.00 0.00 0.05 58 1023.2
20260503004536 14 33 0.0 0.0 0.00 0.00 0.05 56 1023.3
20260503004028 14 33 1.6 0.0 0.00 0.00 0.05 55 1023.4
20260503003511 15 109 6.4 0.0 0.00 0.00 0.03 54 1023.7
20260503003001 15 123 9.7 0.0 0.00 0.00 0.00 52 1023.5
20260503002543 15 89 11.3 0.0 0.00 0.00 0.00 47 1023.4
20260503002030 16 111 9.7 0.0 0.00 0.00 0.00 46 1023.4
20260503001519 17 103 8.0 0.0 0.00 0.00 0.00 46 1023.4
20260503001004 18 110 4.8 0.0 0.00 0.00 0.00 39 1023.3
20260503000553 18 129 3.2 0.0 0.00 0.00 0.00 37 1023.4